CAPE
1032 1593 1753 1742 1649 1649 1730 1875 1436 1110 904 1102 1347 1106 1005 1154 1196 1463 1522 1559 1609 1706 1207 1134 945 1067 1130 1168 960 782 417 491 789 487 816 624 463 443 423 717 64 0 260
1125 1708 1713 1663 1782 1692 1805 1880 1516 1053 1026 1164 1469 1271 1129 834 1264 1028 1443 1713 1579 1440 1325 1463 1340 1174 1343 1336 963 652 608 794 615 671 333 441 499 456 846 316 193 614 303
1034 1678 1798 1868 1945 1743 1709 1743 1492 1245 1298 1353 1565 1571 1330 1479 658 1217 705 782 1160 1503 1643 1486 1412 1114 1450 930 565 430 962 1001 517 833 15 184 528 539 217 104 0 28 401
1017 1481 1778 1854 2037 1991 1778 1523 1473 1375 1422 1269 1303 1288 1470 1435 1340 1354 50 118 494 1118 1487 1429 1474 1431 1121 1017 694 392 620 618 819 478 230 0 272 724 622 206 310 485 167
1292 1432 1771 1919 1938 1772 1668 1571 1477 1314 1284 1033 1234 1194 1452 1716 1532 1433 1352 641 642 296 1108 1161 1464 1638 823 1166 581 527 557 511 419 417 198 88 239 498 647 143 15 555 35
1255 1546 2007 1973 1972 1880 1757 1598 1586 1675 1488 1402 1448 1337 1343 1410 1458 1584 1458 1170 1247 1166 405 978 1256 966 931 1275 716 647 679 389 485 537 314 130 172 530 854 69 148 1 230
1146 1532 1748 2002 2032 1943 1846 1846 1672 1773 1782 1760 1772 1615 1540 1617 1594 1634 1533 1401 1262 1215 1257 697 1027 1317 1007 1313 661 601 414 576 862 796 231 244 135 300 454 339 455 537 619
847 1574 1804 1827 1940 1987 2028 1899 1813 1751 1794 1943 1936 1848 1745 1664 1571 1552 1671 1447 1396 1212 1172 1412 863 1129 1432 1388 838 740 494 465 937 740 448 25 45 11 217 166 51 452 75
1332 1116 1538 1541 1717 1777 1873 1868 1787 1725 1729 1731 1776 1680 1506 1405 1220 1269 1191 1416 1376 1198 1303 1191 1066 926 1195 1407 761 517 589 513 684 484 288 21 0 102 67 307 0 416 313
1465 1219 1264 1220 1402 1544 1720 1840 1727 1748 1757 1713 1759 2117 1669 1421 1326 1430 1251 983 1330 973 935 1029 1122 1163 808 1366 1157 486 605 621 342 293 334 0 0 297 756 454 529 130 490
1647 1462 1349 1142 1195 1127 1252 1839 1870 1865 1760 1736 1445 1478 1539 1342 1156 1197 1138 872 874 1071 907 1129 1217 1245 1018 792 1508 890 665 343 73 157 404 74 0 76 464 110 402 403 76
1693 1446 1522 1438 1441 1447 1413 1313 1585 1666 1390 1768 1362 1079 1139 613 537 323 462 910 950 903 1027 787 960 1045 1055 750 1286 990 420 50 3 336 341 51 56 61 55 0 288 723 244
1405 1370 1372 1364 1242 1429 1592 1360 899 811 892 759 1143 927 522 267 126 0 13 354 523 852 806 991 796 821 870 654 582 622 301 137 312 514 548 253 194 308 323 214 313 586 611
70 0 0 1095 1324 1174 943 248 15 156 247 264 40 640 395 169 46 0 117 650 695 513 538 440 207 0 61 181 642 565 564 217 251 384 113 501 502 301 246 510 445 497 671
10 0 4 19 58 936 433 40 19 25 87 24 0 375 648 97 235 339 377 455 294 604 400 172 162 31 0 60 505 722 587 560 580 640 342 692 604 420 200 444 677 796 826
0 6 0 1 0 313 638 531 356 221 120 3 22 346 772 550 321 180 96 37 54 205 150 82 93 119 0 13 113 440 588 522 389 454 646 478 623 356 284 334 771 914 508
15 0 0 0 323 468 466 531 403 389 223 160 247 247 334 218 142 68 40 19 72 111 97 4 2 68 174 191 319 472 695 753 826 921 777 521 595 414 295 305 340 677 733
0 0 0 0 414 592 791 763 523 488 241 82 43 114 161 186 205 100 63 114 223 103 24 0 2 2 83 195 230 361 636 478 366 381 708 661 525 450 382 403 279 196 416
0 0 0 0 549 542 731 783 360 133 108 123 63 28 50 61 59 59 36 133 430 213 171 107 113 6 80 201 319 376 317 434 411 759 669 704 772 820 676 658 449 335 221
0 0 0 20 555 288 590 373 141 7 23 30 20 17 35 33 35 6 27 98 144 351 310 219 165 123 266 362 416 392 394 497 312 373 524 633 550 610 703 681 681 544 277
10 44 232 306 45 0 1122 479 0 0 18 24 11 21 19 14 34 50 237 366 372 283 360 337 270 210 146 498 346 219 272 242 489 443 344 446 535 481 535 683 485 191 292
211 500 0 18 134 672 1535 999 6 0 10 0 0 0 26 46 154 252 261 283 317 315 277 258 206 209 375 430 229 138 7 0 90 298 333 398 288 327 409 476 366 416 300
451 438 216 733 1074 1764 1128 250 83 2 13 41 33 116 165 269 277 197 315 259 275 200 204 299 406 235 219 265 205 51 17 0 42 92 182 118 130 197 312 463 198 91 53
975 642 1336 197 1334 1824 507 38 232 297 161 205 341 301 326 287 263 114 104 102 153 251 213 394 364 124 231 121 164 158 129 58 0 0 34 58 91 98 138 240 162 32 0
1021 1357 1725 1389 1509 1355 982 351 732 530 612 909 652 331 144 161 132 106 68 43 88 224 286 339 359 274 326 237 138 114 59 3 8 2 0 27 2 7 22 43 147 126 38
1416 1427 1329 1786 1677 965 1191 1018 621 926 835 358 272 186 190 176 127 97 70 58 70 116 280 212 240 215 167 107 123 175 118 3 13 38 38 1 0 1 7 3 12 10 5
CIN
-88 -63 -43 -41 -48 -45 -35 -25 -49 -84 -110 -88 -65 -76 -81 -64 -48 -23 -9 -2 -0 0 0 -0 -4 -4 -0 0 -3 -9 -24 -14 -5 -29 -8 -17 -14 -1 -1 -0 -25 0 -0
-121 -55 -47 -59 -48 -44 -25 -21 -41 -80 -81 -74 -53 -57 -63 -73 -24 -44 -6 0 -0 0 0 -0 -0 -1 -0 0 -2 -15 -13 -3 -7 -8 -26 -16 -13 -4 -1 -2 -17 0 -0
-158 -59 -42 -46 -36 -35 -33 -27 -43 -60 -50 -49 -34 -22 -31 -11 -71 -29 -56 -39 -8 -0 0 0 0 -2 -0 -4 -17 -19 -1 -5 -10 -1 -17 -36 -16 -8 -14 -11 0 -7 -2
-159 -88 -60 -42 -24 -19 -31 -41 -37 -37 -32 -53 -50 -46 -20 -11 -17 -12 -139 -100 -43 -7 -0 -0 0 0 -1 -4 -18 -29 -23 -24 -5 -2 -13 0 -21 -11 -8 -16 -7 0 -18
-121 -102 -57 -24 -26 -40 -38 -41 -46 -48 -31 -66 -36 -48 -18 -0 -5 -10 -6 -35 -32 -62 -6 -1 0 0 -5 -3 -27 -36 -31 -26 -11 -11 -9 -35 -37 -29 -10 -30 -3 0 -6
-129 -103 -55 -33 -27 -26 -26 -33 -34 -26 -18 -21 -14 -24 -22 -9 -0 0 -0 -4 -10 -9 -50 -6 0 -0 -1 -1 -22 -27 -31 -37 -20 -13 -24 -40 -46 -35 -9 -42 -21 -1 -7
-139 -127 -101 -52 -30 -22 -17 -11 -19 -20 -13 -8 -6 -4 -9 -2 -0 -0 -0 -0 -4 -6 -5 -20 -2 0 -3 -1 -27 -35 -42 -36 -21 -6 -29 -51 -57 -48 -32 -24 -3 -0 0
-173 -122 -94 -63 -24 -5 0 -3 -8 -13 -13 -3 -2 -1 -0 -1 -1 -0 -0 -0 -4 -5 -3 -1 -8 -0 -0 -1 -22 -29 -35 -37 -17 -15 -20 -67 -37 -16 -49 -55 -28 -2 -9
-141 -159 -117 -95 -45 -17 -2 -0 -1 -4 -3 -3 -0 -6 -13 -11 -21 -15 -12 -0 -1 -5 -3 -4 -3 -6 -2 0 -27 -37 -28 -43 -33 -22 -37 -73 0 -80 -83 -45 0 -9 -8
-114 -132 -135 -118 -76 -36 -6 0 -1 -0 0 -0 -1 -0 -4 -19 -13 -3 -13 -30 -1 -14 -15 -10 -12 -2 -8 -1 -11 -43 -35 -35 -45 -25 -20 0 0 -54 -27 -40 -22 -50 -5
-73 -95 -104 -108 -91 -72 -39 -8 -1 -0 0 -0 -7 -14 -6 -9 -15 -15 -11 -20 -29 -6 -8 -2 -3 -2 -9 -26 -1 -33 -45 -60 -55 -39 -35 -57 0 -52 -47 -77 -38 -20 -48
-52 -71 -83 -99 -83 -62 -33 -26 -13 -6 -12 -8 -14 -14 -20 -90 -114 -122 -105 -45 -36 -26 -8 -11 -5 -7 -10 -30 -12 -31 -61 -80 -70 -42 -26 -54 -72 -85 -97 0 -50 -5 -21
-48 -40 -57 -65 -68 -44 -12 -15 -17 -17 -22 -30 -8 -8 -55 -131 -169 0 -63 -121 -100 -38 -26 -6 -21 -10 -6 -19 -36 -44 -61 -75 -56 -37 -19 -26 -51 -52 -68 -74 -64 -24 -2
-236 0 0 -46 -55 -53 -22 -79 -175 -78 -87 -99 -174 -29 -52 -108 -183 0 -136 -90 -54 -66 -58 -58 -93 0 -112 -98 -35 -29 -46 -58 -40 -34 -233 -31 -39 -26 -33 -44 -56 -51 -19
-162 0 -20 -136 -87 -36 -66 -122 -63 -171 -104 -127 -47 -68 -23 -112 -123 -116 -103 -74 -45 -31 -66 -114 -104 -54 0 -89 -56 -21 -37 -47 -33 -14 -37 -13 -31 -23 -39 -28 -33 -33 -22
0 -179 -73 -35 0 -30 -30 -32 -31 -74 -152 -171 -99 -61 -15 -34 -62 -92 -104 -97 -77 -58 -97 -144 -154 -118 0 -172 -113 -50 -31 -27 -24 -25 -32 -37 -32 -35 -39 -38 -26 -30 -32
-602 0 0 0 -46 -32 -52 -53 -40 -53 -89 -108 -69 -34 -37 -69 -72 -90 -109 -80 -85 -93 -100 -77 -161 -161 -130 -97 -51 -16 -14 -19 -15 -13 -29 -42 -38 -49 -52 -41 -42 -24 -21
0 0 0 0 -64 -19 -34 -35 -14 -13 -44 -56 -56 -34 -24 -36 -48 -73 -82 -64 -46 -89 -131 0 -26 -55 -106 -56 -14 -21 -24 -30 -27 -20 -22 -34 -34 -38 -44 -36 -27 -41 -31
0 0 0 0 -96 -39 -28 -12 -45 -48 -50 -30 -49 -63 -70 -76 -64 -71 -76 -60 -25 -47 -82 -95 -120 -156 -90 -35 -19 -27 -32 -30 -30 -26 -18 -20 -26 -31 -39 -31 -32 -34 -55
0 0 0 -57 -93 -104 -31 -53 -130 -119 -88 -65 -73 -98 -75 -97 -59 -68 -52 -48 -42 -24 -44 -74 -84 -78 -52 -20 -20 -24 -36 -25 -27 -26 -19 -18 -26 -21 -22 -28 -35 -39 -35
-457 -411 -349 -281 -294 0 -30 -53 -1 0 -143 -93 -74 -59 -89 -95 -48 -38 -27 -32 -36 -21 -26 -24 -30 -23 -22 -17 -15 -35 -31 -33 -26 -30 -32 -23 -21 -26 -16 -41 -33 -32 -52
-398 -306 -1 -397 -287 -128 -6 -27 -40 0 -168 -104 0 0 -67 -64 -46 -24 -24 -29 -30 -26 -20 -17 -17 -17 -18 -17 -10 -15 -26 0 -42 -34 -28 -22 -30 -31 -22 -43 -40 -23 -51
-326 -299 -285 -155 -131 -23 -46 -101 -141 -12 -200 -151 -95 -44 -33 -33 -27 -41 -28 -21 -19 -19 -25 -24 -16 -18 -16 -22 -15 -11 -5 0 -32 -57 -57 -55 -31 -33 -38 -39 -69 -43 -100
-226 -238 -108 -279 -80 -12 -115 -224 -93 -81 -75 -73 -42 -23 -19 -27 -19 -19 -28 -35 -64 -60 -17 -10 -10 -20 -12 -20 -18 -18 -18 -18 0 0 -38 -45 -22 -32 -38 -7 -58 -77 0
-230 -177 -89 -82 -42 -30 -52 -108 -43 -61 -31 -6 -32 -26 -34 -32 -23 -32 -39 -17 -31 -11 -12 -10 -9 -15 -14 -18 -17 -18 -18 -10 -18 -2 0 -21 -55 -48 -53 -33 -45 -39 -77
-196 -148 -131 -43 -33 -47 -13 -10 -21 -16 -19 -39 -38 -46 -45 -35 -50 -41 -47 -36 -35 -13 -7 -16 -20 -18 -22 -44 -29 -13 -16 -15 -7 -18 -23 0 0 0 -93 -58 -51 -64 -27
Wind_Speed
22 22 22 21 20 20 20 19 19 19 18 17 17 17 20 21 21 18 17 12 11 12 11 11 8 8 12 12 8 7 9 14 18 20 21 20 20 11 25 28 28 29 28
26 23 23 22 21 20 20 20 19 19 19 19 18 18 20 22 21 20 14 9 9 10 10 7 10 8 9 7 4 3 6 2 23 27 26 26 21 10 2 28 26 28 27
25 24 23 22 22 21 19 20 20 20 20 20 18 19 19 20 22 25 16 7 6 6 10 7 7 6 5 5 10 14 18 26 27 29 28 27 26 26 28 27 27 27 26
26 24 22 22 22 21 20 21 20 20 19 18 17 17 18 19 20 22 5 11 7 7 10 8 6 6 7 9 13 17 23 26 26 26 22 27 26 25 27 27 27 25 25
26 24 22 22 21 22 21 21 20 20 20 20 17 16 17 17 18 21 9 8 9 9 9 8 7 8 9 13 18 21 23 23 23 22 24 25 26 25 26 26 26 26 25
27 25 23 22 21 21 20 20 19 19 18 19 17 16 16 16 16 18 14 10 10 10 9 9 11 10 12 15 19 21 22 23 22 18 24 25 24 24 24 24 25 25 25
25 25 23 22 20 20 19 18 18 18 17 17 16 15 14 13 12 11 15 13 12 12 12 11 11 13 14 16 19 20 21 19 18 18 25 23 22 22 22 22 22 23 23
24 23 22 22 21 19 18 16 16 16 16 15 14 12 9 10 10 11 11 12 13 12 13 14 14 13 16 16 19 19 19 18 16 16 20 20 21 22 21 21 21 21 21
23 23 22 20 20 19 17 16 15 14 14 14 13 12 11 9 10 10 11 12 13 16 14 13 15 13 15 17 19 20 19 19 17 15 20 18 19 20 19 19 19 19 19
20 20 19 19 18 17 16 14 14 13 12 11 11 10 10 10 10 11 11 12 12 15 15 14 13 15 15 16 19 21 19 19 18 15 7 16 17 17 17 16 17 17 17
18 17 17 17 16 16 16 15 12 12 12 11 10 9 9 9 11 15 15 11 11 14 17 17 17 14 15 15 17 21 22 21 20 19 9 13 13 14 15 14 14 14 15
14 13 14 15 15 16 16 15 12 8 9 11 10 9 8 8 8 11 13 12 11 14 18 19 18 18 17 15 17 18 21 22 24 19 9 10 10 11 12 12 11 12 12
14 10 9 11 14 16 16 15 11 7 7 10 7 8 7 7 6 11 14 17 14 14 18 21 19 19 20 22 15 14 19 22 23 24 14 5 6 7 9 9 9 8 8
22 28 23 10 14 12 12 9 8 24 10 10 9 6 5 10 14 13 9 15 13 13 17 18 21 22 23 23 26 4 6 21 24 21 20 6 4 4 5 5 5 5 5
23 28 27 21 19 12 12 13 15 17 15 7 8 11 4 7 8 8 13 16 13 15 16 22 22 24 26 26 25 15 19 27 27 18 12 2 2 3 4 4 2 2 2
22 11 10 14 29 20 13 11 11 13 10 7 9 5 7 6 11 12 11 15 20 17 18 21 24 25 27 26 27 28 22 26 29 22 9 3 2 1 2 2 3 2 3
5 10 9 8 8 13 14 13 10 8 8 8 6 5 5 13 17 13 10 24 26 14 23 25 28 27 30 30 28 27 26 13 26 20 9 7 6 2 2 2 3 4 3
18 11 15 14 15 19 18 16 13 11 8 6 9 5 4 8 8 4 12 22 23 24 4 23 29 29 29 28 28 30 26 27 30 29 15 10 9 8 4 3 3 1 4
22 18 17 18 20 20 21 21 20 19 11 6 11 16 18 21 20 17 26 26 26 26 14 21 25 25 26 24 25 29 30 28 29 27 23 17 14 11 9 5 4 4 4
21 21 20 20 20 18 19 22 26 23 17 9 9 16 16 20 17 23 26 26 26 25 24 25 26 26 22 26 28 24 21 6 8 6 11 15 15 11 8 7 8 10 21
20 20 19 21 19 20 20 21 27 29 24 18 9 7 8 13 13 14 17 17 21 24 24 22 15 17 16 12 20 28 29 29 6 4 5 5 7 9 8 10 8 9 7
18 18 20 20 20 20 19 21 23 26 26 23 18 9 8 10 11 11 12 12 16 17 21 22 22 21 23 20 18 19 21 23 15 3 6 9 16 23 22 18 16 9 12
16 17 18 18 19 18 20 21 22 23 22 21 15 12 10 10 11 12 14 13 15 17 20 20 20 23 24 23 8 10 14 13 19 20 18 15 19 21 20 15 15 11 10
17 17 17 16 16 16 17 18 19 18 18 20 19 15 13 13 11 13 14 16 17 18 19 21 21 21 14 18 18 5 3 12 15 17 18 16 15 17 15 14 11 13 14
18 17 16 16 15 14 13 14 15 18 19 19 20 17 15 13 12 14 14 16 17 17 18 18 18 18 16 16 12 14 12 8 5 4 13 14 15 17 16 14 13 13 15
18 17 16 14 13 12 12 12 13 16 17 18 18 18 16 13 15 14 14 15 15 15 15 15 15 16 18 19 20 10 10 11 10 8 10 12 13 17 15 14 14 15 16
Wind_Direction
111 106 102 95 91 87 83 82 80 79 75 67 62 60 61 60 59 47 44 25 23 28 16 12 348 351 21 24 5 4 20 40 54 60 59 56 54 168 127 95 85 89 86
112 107 104 99 95 94 87 87 86 85 83 81 73 68 71 70 66 61 34 5 5 11 6 342 14 0 14 3 271 287 15 355 137 90 79 78 56 23 12 106 80 91 81
108 107 103 97 98 97 90 94 93 90 92 88 81 77 76 72 79 92 48 348 320 317 3 344 343 340 289 304 204 191 175 138 131 109 90 95 81 77 84 84 89 89 77
108 106 100 97 97 98 95 98 97 96 93 88 83 79 77 75 85 100 299 184 236 323 357 340 294 305 254 222 196 179 159 144 137 135 142 111 94 81 96 105 103 103 83
107 104 100 97 96 98 98 98 100 100 96 97 86 81 78 71 70 114 266 308 316 339 338 304 276 256 238 205 184 171 163 158 150 147 153 129 108 96 101 107 109 99 101
105 107 106 103 100 99 94 93 94 97 92 95 85 80 77 69 69 80 224 308 294 289 312 287 243 248 224 207 186 178 171 160 152 169 146 125 112 99 103 100 99 101 103
105 110 107 106 101 99 93 87 84 90 89 91 86 81 76 55 42 8 226 251 272 291 274 269 255 240 223 213 201 192 186 186 184 171 131 106 109 103 100 100 101 103 106
103 106 106 104 103 98 92 84 84 87 90 86 82 64 356 344 324 329 299 273 263 282 264 264 260 257 230 232 214 210 206 207 210 209 147 110 105 111 105 102 104 100 101
102 103 104 100 103 106 99 91 87 85 81 81 77 68 59 16 355 358 330 300 263 221 256 280 265 279 262 245 230 222 218 216 223 225 114 102 102 108 104 101 106 106 103
95 102 98 100 106 107 101 99 97 91 81 75 72 62 46 45 41 353 354 315 297 258 256 281 293 279 276 263 248 234 240 237 230 238 64 110 95 100 99 93 100 104 106
92 98 97 102 107 112 112 115 98 93 88 78 68 53 49 348 315 281 293 328 331 284 257 248 253 282 273 277 268 250 248 247 240 250 11 98 92 89 95 91 99 98 102
76 88 97 102 112 117 120 116 96 69 81 95 84 71 2 360 2 322 305 314 331 304 254 248 267 257 271 285 277 271 262 257 248 269 353 101 91 88 93 89 89 97 97
42 25 100 101 113 119 121 114 82 74 62 88 61 65 13 30 39 340 292 275 296 296 266 242 261 265 261 252 283 291 276 264 259 257 304 65 58 80 87 83 83 84 86
358 317 282 150 125 107 107 79 43 225 106 91 338 69 24 321 303 318 302 290 304 309 279 278 263 262 247 255 236 53 103 270 264 283 300 178 6 53 44 68 74 74 78
35 306 327 257 272 95 79 79 100 150 144 100 81 298 7 329 339 320 290 279 310 300 299 259 261 260 247 245 254 182 185 221 228 295 322 109 28 15 17 13 27 50 45
13 23 55 21 322 230 29 43 68 119 120 66 94 51 333 340 298 295 307 300 284 289 292 290 278 253 239 239 232 221 197 214 233 285 321 355 120 109 17 18 338 326 344
35 43 68 80 114 45 54 56 69 69 82 97 86 22 4 300 278 296 312 255 237 306 287 279 258 262 246 241 232 223 222 286 277 295 316 316 315 287 289 309 338 298 293
47 70 80 99 108 98 32 54 76 50 63 67 316 339 29 324 316 94 153 190 205 215 1 275 256 252 240 224 221 238 276 276 266 274 303 311 313 314 278 266 291 221 215
56 77 83 96 81 66 44 41 39 4 0 59 312 285 278 265 276 166 203 207 239 238 190 278 248 224 222 215 219 237 236 228 242 282 292 302 304 306 304 277 248 261 259
66 74 75 88 84 80 67 53 37 29 17 5 326 280 277 257 277 242 230 238 244 230 230 234 242 222 208 233 252 226 233 194 207 226 306 303 304 304 294 289 304 308 296
71 76 81 83 91 84 78 71 50 49 61 71 341 332 315 288 294 279 277 286 262 249 249 211 173 187 315 337 308 272 256 281 326 248 291 283 290 302 301 304 305 313 318
74 85 79 87 87 88 87 80 67 66 71 68 74 317 332 319 315 310 310 321 290 284 256 274 275 294 285 300 319 320 316 313 325 239 308 311 312 302 303 314 315 328 332
80 88 88 90 76 83 78 76 73 63 78 66 2 345 336 340 317 302 291 322 309 303 288 289 282 259 255 279 8 353 346 352 329 327 323 319 313 306 314 313 310 336 348
79 89 92 89 79 81 79 81 73 78 79 74 49 5 327 338 333 311 305 308 301 305 297 283 284 270 346 226 328 57 65 341 342 338 337 330 342 336 335 322 350 347 347
77 74 84 88 85 82 82 84 82 58 62 72 56 27 359 339 333 321 315 307 307 309 294 290 293 301 332 346 15 358 6 20 34 44 353 349 341 338 344 344 2 12 5
76 74 83 80 74 73 54 77 71 53 62 51 60 29 1 13 356 330 325 325 320 315 316 318 321 326 325 316 308 90 100 50 42 51 360 355 6 358 2 360 8 12 5